FW2861 Weather Reports


time (UTC)temp
C
wind
direction
speed
KPH
gust
KPH
rain 1hr
cm
rain 24hr
cm
rain mn
cm
humidity
%
barometer
mb
20260508203651 15 235 8.0 17.7 0.00 0.00 0.00 39 1006.5
20260508203151 16 265 8.0 17.7 0.00 0.00 0.00 39 1006.5
20260508202652 16 246 6.4 17.7 0.00 0.00 0.00 38 1006.3
20260508202152 16 209 6.4 16.1 0.00 0.00 0.00 37 1006.4
20260508201649 16 246 4.8 16.1 0.00 0.00 0.00 37 1006.4
20260508201149 16 247 4.8 17.7 0.00 0.00 0.00 38 1006.4
20260508200649 16 201 6.4 17.7 0.00 0.00 0.00 37 1006.4
20260508200148 16 253 6.4 14.5 0.00 0.00 0.00 37 1006.3
20260508195148 16 126 6.4 14.5 0.00 0.00 0.00 36 1006.2
20260508194648 16 217 4.8 12.9 0.00 0.00 0.00 36 1006.2
20260508194146 17 199 3.2 12.9 0.00 0.00 0.00 35 1006.1
20260508193647 17 295 3.2 12.9 0.00 0.00 0.00 35 1006.1
20260508193145 17 271 4.8 12.9 0.00 0.00 0.00 35 1006.1
20260508192645 17 253 4.8 12.9 0.00 0.00 0.00 35 1006.1
20260508192143 16 106 4.8 17.7 0.00 0.00 0.00 35 1006.1
20260508191640 16 240 6.4 17.7 0.00 0.00 0.00 34 1006.1
20260508191140 16 190 4.8 11.3 0.00 0.00 0.00 35 1006.0
20260508190640 17 179 4.8 14.5 0.00 0.00 0.00 34 1006.1
20260508190140 17 152 3.2 14.5 0.00 0.00 0.00 34 1006.2
20260508185641 17 292 3.2 12.9 0.00 0.00 0.00 36 1006.2
20260508185141 17 197 3.2 14.5 0.00 0.00 0.00 35 1006.2
20260508184135 16 53 4.8 16.1 0.00 0.00 0.00 34 1006.2
20260508183637 16 251 4.8 17.7 0.00 0.00 0.00 34 1006.1
20260508183137 16 229 4.8 17.7 0.00 0.00 0.00 35 1006.1
20260508182633 16 261 4.8 16.1 0.00 0.00 0.00 35 1006.2
20260508182135 16 156 4.8 17.7 0.00 0.00 0.00 36 1006.1
20260508181634 16 263 6.4 17.7 0.00 0.00 0.00 35 1006.1
20260508181134 16 52 6.4 16.1 0.00 0.00 0.00 35 1006.1
20260508180635 16 254 6.4 16.1 0.00 0.00 0.00 35 1006.1
20260508180134 16 324 4.8 16.1 0.00 0.00 0.00 34 1006.2
20260508175634 16 241 6.4 16.1 0.00 0.00 0.00 35 1006.0
20260508175130 16 232 4.8 16.1 0.00 0.00 0.00 35 1006.1
20260508174627 16 229 4.8 16.1 0.00 0.00 0.00 35 1006.1
20260508173628 16 249 4.8 16.1 0.00 0.00 0.00 36 1006.2
20260508173128 16 222 6.4 19.3 0.00 0.00 0.00 37 1006.1
20260508172628 16 252 6.4 19.3 0.00 0.00 0.00 37 1006.1
20260508172129 16 230 6.4 17.7 0.00 0.00 0.00 36 1006.2
20260508171628 17 236 6.4 19.3 0.00 0.00 0.00 35 1006.2
20260508171129 16 242 6.4 19.3 0.00 0.00 0.00 35 1006.3
20260508170629 16 184 6.4 14.5 0.00 0.00 0.00 37 1006.1
20260508170128 16 225 6.4 22.5 0.00 0.00 0.00 36 1006.3
20260508165630 15 288 6.4 22.5 0.00 0.00 0.00 36 1006.2
20260508165129 15 245 6.4 19.3 0.00 0.00 0.00 36 1006.1
20260508164629 15 245 6.4 17.7 0.00 0.00 0.00 36 1006.2
20260508164125 15 203 4.8 17.7 0.00 0.00 0.00 36 1006.3
20260508163625 16 264 4.8 17.7 0.00 0.00 0.00 36 1006.3
20260508163124 16 172 6.4 17.7 0.00 0.00 0.00 35 1006.4
20260508162624 16 255 6.4 14.5 0.00 0.00 0.00 35 1006.4
20260508161623 16 299 4.8 14.5 0.00 0.00 0.00 36 1006.5
20260508161122 17 171 3.2 9.7 0.00 0.00 0.00 35 1006.6
20260508160624 16 222 4.8 16.1 0.00 0.00 0.00 36 1006.6
20260508155623 15 268 8.0 17.7 0.00 0.00 0.00 37 1006.6
20260508155123 15 205 6.4 20.9 0.00 0.00 0.00 36 1006.8
20260508154622 16 259 6.4 20.9 0.00 0.00 0.00 36 1006.8
20260508154117 16 250 6.4 20.9 0.00 0.00 0.00 35 1006.9
20260508153116 15 0 4.8 14.5 0.00 0.00 0.00 36 1007.0
20260508152615 15 246 6.4 16.1 0.00 0.00 0.00 36 1006.9
20260508152112 15 172 6.4 16.1 0.00 0.00 0.00 35 1007.0
20260508151613 15 318 4.8 16.1 0.00 0.00 0.00 35 1007.0
20260508151113 16 133 3.2 14.5 0.00 0.00 0.00 36 1007.1
20260508150612 16 0 3.2 14.5 0.00 0.00 0.00 36 1007.1
20260508145613 15 243 6.4 19.3 0.00 0.00 0.00 35 1007.2
20260508145113 15 257 4.8 19.3 0.00 0.00 0.00 36 1007.2
20260508144608 15 161 3.2 11.3 0.00 0.00 0.00 37 1007.2
20260508143612 15 260 3.2 14.5 0.00 0.00 0.00 38 1007.2
20260508142606 15 256 3.2 14.5 0.00 0.00 0.00 37 1007.3
20260508142107 15 303 3.2 14.5 0.00 0.00 0.00 38 1007.3
20260508141106 15 235 4.8 11.3 0.00 0.00 0.00 39 1007.5
20260508140106 15 355 3.2 11.3 0.00 0.00 0.00 39 1007.6
20260508135605 14 238 3.2 12.9 0.00 0.00 0.00 38 1007.6
20260508135100 14 11 3.2 12.9 0.00 0.00 0.00 39 1007.6
20260508134601 14 201 3.2 11.3 0.00 0.00 0.00 38 1007.7
20260508134101 14 289 3.2 11.3 0.00 0.00 0.00 40 1007.7
20260508133600 13 244 4.8 12.9 0.00 0.00 0.00 40 1007.8
20260508133101 13 252 4.8 12.9 0.00 0.00 0.00 40 1007.7
20260508132600 13 212 3.2 11.3 0.00 0.00 0.00 40 1007.8
20260508132100 13 295 3.2 9.7 0.00 0.00 0.00 41 1007.8
20260508131601 13 264 3.2 8.0 0.00 0.00 0.00 40 1007.8
20260508130601 13 240 3.2 12.9 0.00 0.00 0.00 42 1007.8
20260508130100 13 91 3.2 12.9 0.00 0.00 0.00 41 1007.8
20260508125600 13 215 3.2 9.7 0.00 0.00 0.00 42 1007.8
20260508125056 13 223 3.2 8.0 0.00 0.00 0.00 42 1007.8
20260508124554 13 207 3.2 8.0 0.00 0.00 0.00 42 1007.9
20260508124053 12 109 3.2 8.0 0.00 0.00 0.00 44 1007.8
20260508123552 12 222 3.2 8.0 0.00 0.00 0.00 45 1007.9
20260508123051 12 270 3.2 8.0 0.00 0.00 0.00 45 1007.9
20260508122551 12 341 3.2 8.0 0.00 0.00 0.00 44 1007.9
20260508122051 12 237 3.2 9.7 0.00 0.00 0.00 46 1008.0
20260508121551 12 0 3.2 9.7 0.00 0.00 0.00 45 1008.0
20260508121052 12 238 1.6 6.4 0.00 0.00 0.00 45 1008.0
20260508120552 12 154 3.2 11.3 0.00 0.00 0.00 45 1008.0
20260508120050 11 265 3.2 11.3 0.00 0.00 0.00 46 1008.0
20260508115550 11 0 3.2 9.7 0.00 0.00 0.00 47 1008.0
20260508115050 11 251 3.2 9.7 0.00 0.00 0.00 48 1008.1
20260508114549 11 265 3.2 9.7 0.00 0.00 0.00 47 1008.0
20260508114045 11 259 3.2 9.7 0.00 0.00 0.00 48 1008.1
20260508113545 10 236 3.2 8.0 0.00 0.00 0.00 48 1008.0
20260508113042 10 273 3.2 9.7 0.00 0.00 0.00 49 1008.0
20260508112541 10 0 4.8 11.3 0.00 0.00 0.00 49 1007.9
20260508111543 9 261 3.2 11.3 0.00 0.00 0.00 52 1007.8
20260508111043 9 0 1.6 6.4 0.00 0.00 0.00 53 1007.8
20260508110543 8 242 1.6 4.8 0.00 0.00 0.00 55 1007.7
20260508110042 7 0 1.6 4.8 0.00 0.00 0.00 60 1007.7
20260508105542 7 277 1.6 6.4 0.00 0.00 0.00 63 1007.6
20260508104540 7 248 1.6 6.4 0.00 0.00 0.00 62 1007.4
20260508104041 7 277 1.6 4.8 0.00 0.00 0.00 63 1007.4
20260508103541 7 264 3.2 6.4 0.00 0.00 0.00 63 1007.4
20260508103039 7 273 3.2 6.4 0.00 0.00 0.00 62 1007.3
20260508102541 7 269 3.2 6.4 0.00 0.00 0.00 63 1007.2
20260508100539 7 254 3.2 6.4 0.00 0.00 0.00 59 1007.2
20260508100039 7 252 3.2 6.4 0.00 0.00 0.00 58 1007.2
20260508095539 7 243 1.6 4.8 0.00 0.00 0.00 59 1007.1
20260508095038 7 0 1.6 6.4 0.00 0.00 0.00 58 1006.9
20260508094035 7 262 3.2 6.4 0.00 0.00 0.00 58 1006.9
20260508093536 7 0 1.6 6.4 0.00 0.00 0.00 58 1006.9
20260508093038 7 271 3.2 6.4 0.00 0.00 0.00 57 1006.8
20260508092539 7 277 3.2 8.0 0.00 0.00 0.00 57 1006.8
20260508092038 7 244 3.2 8.0 0.00 0.00 0.00 58 1006.8
20260508091538 7 237 3.2 6.4 0.00 0.00 0.00 57 1006.8
20260508091038 7 250 3.2 6.4 0.00 0.00 0.00 58 1006.8
20260508090032 7 267 3.2 12.9 0.00 0.00 0.00 58 1006.8
20260508084951 7 174 1.6 8.0 0.00 0.00 0.00 59 1006.7
20260508084450 7 0 1.6 11.3 0.00 0.00 0.00 59 1006.7
20260508083952 7 0 3.2 11.3 0.00 0.00 0.00 59 1006.7
20260508083450 7 263 3.2 11.3 0.00 0.00 0.00 59 1006.6
20260508082949 7 253 3.2 11.3 0.00 0.00 0.00 60 1006.5
20260508082448 7 0 3.2 6.4 0.00 0.00 0.00 61 1006.4
20260508081948 7 237 3.2 6.4 0.00 0.00 0.00 60 1006.4
20260508081448 7 262 3.2 6.4 0.00 0.00 0.00 61 1006.3
20260508080949 7 292 1.6 6.4 0.00 0.00 0.00 59 1006.2
20260508075950 7 288 3.2 9.7 0.00 0.00 0.00 59 1006.0
20260508075450 6 0 1.6 8.0 0.00 0.00 0.00 61 1005.9
20260508073947 6 0 1.6 6.4 0.00 0.00 0.00 66 1005.6
20260508073447 6 262 0.0 4.8 0.00 0.00 0.00 66 1005.4
20260508072946 6 0 1.6 3.2 0.00 0.00 0.00 63 1005.4
20260508072448 6 270 1.6 3.2 0.00 0.00 0.00 60 1005.3
20260508071946 7 259 0.0 3.2 0.00 0.00 0.00 61 1005.2
20260508071447 7 0 0.0 3.2 0.00 0.00 0.00 59 1005.2
20260508070945 7 0 0.0 3.2 0.00 0.00 0.00 58 1005.2
20260508070446 7 0 0.0 4.8 0.00 0.00 0.00 57 1005.2
20260508065946 7 0 0.0 4.8 0.00 0.00 0.00 56 1005.2
20260508065446 7 0 0.0 4.8 0.00 0.00 0.00 55 1005.3
20260508064946 8 0 0.0 4.8 0.00 0.00 0.00 56 1005.3
20260508064445 8 237 0.0 3.2 0.00 0.00 0.00 57 1005.2
20260508063941 8 0 0.0 3.2 0.00 0.00 0.00 56 1005.2
20260508063439 8 0 0.0 4.8 0.00 0.00 0.00 55 1005.3
20260508062938 8 0 0.0 4.8 0.00 0.00 0.00 55 1005.3
20260508061939 9 0 0.0 3.2 0.00 0.00 0.00 53 1005.2
20260508061438 9 0 0.0 8.0 0.00 0.00 0.00 53 1005.2
20260508060938 9 0 1.6 8.0 0.00 0.00 0.00 53 1005.3
20260508060439 9 268 1.6 8.0 0.00 0.00 0.00 54 1005.3
20260508055938 9 137 1.6 4.8 0.00 0.00 0.00 55 1005.3
20260508055433 9 124 0.0 4.8 0.00 0.00 0.00 54 1005.2
20260508054934 9 231 0.0 3.2 0.00 0.00 0.00 53 1005.2
20260508054432 10 0 0.0 6.4 0.00 0.00 0.00 51 1005.2
20260508053932 10 0 1.6 6.4 0.00 0.00 0.00 51 1005.2
20260508052932 10 82 1.6 8.0 0.00 0.00 0.00 51 1005.3
20260508051930 10 0 1.6 9.7 0.00 0.00 0.00 50 1005.3
20260508051430 10 332 1.6 9.7 0.00 0.00 0.00 49 1005.3
20260508050930 10 0 1.6 8.0 0.00 0.00 0.00 48 1005.3
20260508050432 10 68 1.6 6.4 0.00 0.00 0.00 48 1005.4
20260508045929 10 255 1.6 9.7 0.00 0.00 0.00 49 1005.4
20260508045427 10 0 3.2 9.7 0.00 0.00 0.00 48 1005.4
20260508044925 10 246 3.2 9.7 0.00 0.00 0.00 48 1005.4
20260508044424 10 248 1.6 8.0 0.00 0.00 0.00 47 1005.4
20260508043925 11 0 1.6 8.0 0.00 0.00 0.00 47 1005.4
20260508043424 11 0 1.6 8.0 0.00 0.00 0.00 47 1005.4
20260508042924 11 337 3.2 8.0 0.00 0.00 0.00 45 1005.4
20260508042422 11 214 3.2 8.0 0.00 0.00 0.00 46 1005.4
20260508041922 11 230 3.2 8.0 0.00 0.00 0.00 45 1005.4
20260508041423 11 0 3.2 11.3 0.00 0.00 0.00 46 1005.4
20260508040922 11 136 3.2 11.3 0.00 0.00 0.00 45 1005.4
20260508040423 11 270 3.2 9.7 0.00 0.00 0.00 45 1005.4
20260508035922 11 12 3.2 11.3 0.00 0.00 0.99 45 1005.4
20260508035420 11 248 3.2 11.3 0.00 0.00 0.99 46 1005.4
20260508034420 11 354 3.2 9.7 0.00 0.00 0.99 46 1005.4
20260508033917 11 284 1.6 9.7 0.00 0.00 0.99 46 1005.4
20260508033416 11 248 3.2 8.0 0.00 0.00 0.99 46 1005.3
20260508032918 11 237 3.2 9.7 0.00 0.00 0.99 45 1005.4
20260508032417 11 115 3.2 9.7 0.00 0.00 0.99 46 1005.4
20260508031916 11 244 3.2 8.0 0.00 0.00 0.99 45 1005.4
20260508031417 11 176 1.6 8.0 0.00 0.00 0.99 46 1005.5
20260508030917 11 263 1.6 9.7 0.00 0.00 0.99 46 1005.5
20260508030418 11 263 3.2 9.7 0.00 0.00 0.99 46 1005.6
20260508025415 11 241 3.2 9.7 0.00 0.00 0.99 46 1005.5
20260508024916 11 327 3.2 9.7 0.00 0.00 0.99 44 1005.5
20260508023913 12 246 3.2 9.7 0.00 0.00 0.99 44 1005.5
20260508023413 12 311 3.2 11.3 0.00 0.00 0.99 44 1005.4
20260508022913 12 268 3.2 11.3 0.00 0.00 0.99 44 1005.4
20260508022412 12 172 3.2 8.0 0.00 0.00 0.99 44 1005.5
20260508021911 12 267 1.6 8.0 0.00 0.00 0.99 45 1005.5
20260508020910 12 317 1.6 9.7 0.00 0.00 0.99 44 1005.6
20260508020410 12 0 1.6 11.3 0.00 0.00 0.99 44 1005.6
20260508015911 12 238 1.6 11.3 0.00 0.00 0.99 43 1005.5
20260508014407 12 237 3.2 8.0 0.00 0.00 0.99 42 1005.5
20260508013907 12 227 3.2 11.3 0.00 0.00 0.99 42 1005.5
20260508013406 12 254 3.2 11.3 0.00 0.00 0.99 42 1005.4
20260508012908 12 188 3.2 14.5 0.00 0.00 0.99 41 1005.3
20260508011907 13 163 3.2 12.9 0.00 0.00 0.99 41 1005.2
20260508010906 13 287 3.2 12.9 0.00 0.00 0.99 41 1005.0
20260508010404 13 154 1.6 8.0 0.00 0.00 0.99 41 1005.1
20260508005404 13 232 3.2 12.9 0.00 0.00 0.99 41 1004.8
20260508004903 13 296 3.2 14.5 0.00 0.00 0.99 40 1004.7
20260508004359 13 229 3.2 14.5 0.00 0.00 0.99 39 1004.5
20260508003859 13 213 3.2 12.9 0.00 0.00 0.99 40 1004.5
20260508003400 13 212 3.2 9.7 0.00 0.00 0.99 40 1004.4
20260508002859 13 0 3.2 11.3 0.00 0.00 0.99 39 1004.3
20260508002400 13 269 3.2 11.3 0.00 0.00 0.99 39 1004.3
20260508001900 13 257 3.2 11.3 0.00 0.00 0.99 39 1004.2
20260508001401 14 247 3.2 9.7 0.00 0.00 0.99 40 1004.1
20260507235858 14 240 3.2 14.5 0.00 0.00 0.99 38 1004.0
20260507235357 14 22 3.2 14.5 0.00 0.00 0.99 38 1004.0
20260507234855 15 285 3.2 11.3 0.00 0.00 0.99 38 1004.0
20260507234356 15 255 3.2 14.5 0.00 0.00 0.99 37 1003.9
20260507233855 15 224 3.2 14.5 0.00 0.00 0.99 37 1003.8
20260507233356 15 167 3.2 12.9 0.00 0.00 0.99 37 1003.8
20260507232855 15 106 1.6 8.0 0.00 0.00 0.99 38 1003.8
20260507232355 15 186 3.2 8.0 0.00 0.00 0.99 37 1003.7
20260507231856 15 243 3.2 14.5 0.00 0.00 0.99 36 1003.7
20260507231353 15 190 3.2 14.5 0.00 0.00 0.99 37 1003.6
20260507230853 15 228 3.2 9.7 0.00 0.00 0.99 38 1003.5
20260507230348 16 221 3.2 9.7 0.00 0.00 0.99 38 1003.5
20260507225846 16 112 3.2 9.7 0.00 0.00 0.99 36 1003.5
20260507225347 16 216 3.2 14.5 0.00 0.00 0.99 37 1003.4
20260507224341 16 247 3.2 14.5 0.00 0.00 0.99 35 1003.3
20260507223841 16 232 3.2 12.9 0.00 0.00 0.99 35 1003.2
20260507223341 16 206 4.8 14.5 0.00 0.00 0.99 36 1003.2
20260507222340 16 246 3.2 11.3 0.00 0.00 0.99 36 1003.1
20260507221839 16 0 3.2 11.3 0.00 0.00 0.99 38 1003.1
20260507220839 17 137 3.2 9.7 0.00 0.00 0.99 37 1003.1
20260507220338 17 0 3.2 8.0 0.00 0.00 0.99 36 1003.0
20260507215834 17 233 1.6 6.4 0.00 0.00 0.99 36 1003.0
20260507215335 17 334 3.2 9.7 0.00 0.00 0.99 35 1002.9
20260507214834 17 0 3.2 9.7 0.00 0.00 0.99 35 1002.9
20260507214335 17 302 3.2 8.0 0.00 0.00 0.99 37 1002.9
20260507213837 17 282 3.2 8.0 0.00 0.00 0.99 36 1002.8
20260507213335 17 76 1.6 9.7 0.00 0.00 0.99 36 1002.8
20260507212836 18 36 3.2 11.3 0.00 0.00 0.99 34 1002.8
20260507212336 18 137 3.2 11.3 0.00 0.00 0.99 33 1002.8
20260507211835 18 39 3.2 9.7 0.00 0.00 0.99 34 1002.8
20260507211334 18 136 3.2 9.7 0.00 0.00 0.99 33 1002.7
20260507210831 18 282 3.2 9.7 0.00 0.00 0.99 34 1002.8
20260507210327 18 180 3.2 9.7 0.00 0.00 0.99 33 1002.8
20260507205826 18 31 3.2 14.5 0.00 0.00 0.99 34 1002.8
20260507205325 18 255 3.2 14.5 0.00 0.00 0.99 32 1002.7
20260507204325 18 337 3.2 11.3 0.00 0.00 0.99 33 1002.7